Time,TemperatureF,DewpointF,PressureIn,WindDirection,WindDirectionDegrees,WindSpeedMPH,WindSpeedGustMPH,Humidity,HourlyPrecipIn,Conditions,Clouds,dailyrainin,SoftwareType,DateUTC
2013-03-24 00:02:00,32.0,29.0,30.38,East,92,0.0,-999.0,88,-99.99,,,-99.99,,2013-03-24 07:02:00,
2013-03-24 00:11:00,32.0,29.0,30.38,East,92,0.0,-999.0,88,-99.99,,,-99.99,,2013-03-24 07:11:00,
2013-03-24 00:22:00,32.0,29.0,30.37,East,92,0.0,-999.0,88,-99.99,,,-99.99,,2013-03-24 07:22:00,
2013-03-24 00:32:00,32.0,29.0,30.37,East,92,0.0,-999.0,88,-99.99,,,-99.99,,2013-03-24 07:32:00,
2013-03-24 00:42:00,32.0,29.0,30.37,East,92,0.0,-999.0,88,-99.99,,,-99.99,,2013-03-24 07:42:00,
2013-03-24 00:52:00,32.0,29.0,30.37,East,92,0.0,-999.0,89,-99.99,,,-99.99,,2013-03-24 07:52:00,
2013-03-24 01:02:00,32.0,29.0,30.38,East,92,0.0,-999.0,89,-99.99,,,-99.99,,2013-03-24 08:02:00,
2013-03-24 01:12:00,32.0,29.0,30.38,East,92,0.0,-999.0,89,-99.99,,,-99.99,,2013-03-24 08:12:00,
2013-03-24 01:22:00,31.0,28.0,30.38,East,92,0.0,-999.0,89,-99.99,,,-99.99,,2013-03-24 08:22:00,
2013-03-24 01:32:00,31.0,28.0,30.38,East,92,0.0,-999.0,89,-99.99,,,-99.99,,2013-03-24 08:32:00,
2013-03-24 01:41:00,31.0,28.0,30.38,East,92,0.0,-999.0,89,-99.99,,,-99.99,,2013-03-24 08:41:00,
2013-03-24 01:52:00,31.0,28.0,30.38,East,92,0.0,-999.0,89,-99.99,,,-99.99,,2013-03-24 08:52:00,
2013-03-24 02:02:00,31.0,28.0,30.38,East,92,0.0,-999.0,90,-99.99,,,-99.99,,2013-03-24 09:02:00,
2013-03-24 02:12:00,31.0,28.0,30.38,East,92,0.0,-999.0,90,-99.99,,,-99.99,,2013-03-24 09:12:00,
2013-03-24 02:21:00,30.0,27.0,30.38,East,92,0.0,-999.0,90,-99.99,,,-99.99,,2013-03-24 09:21:00,
2013-03-24 02:33:00,30.0,27.0,30.38,East,92,0.0,-999.0,90,-99.99,,,-99.99,,2013-03-24 09:33:00,
2013-03-24 02:42:00,30.0,27.0,30.38,East,92,0.0,-999.0,90,-99.99,,,-99.99,,2013-03-24 09:42:00,
2013-03-24 02:52:00,29.0,26.0,30.39,East,92,0.0,-999.0,90,-99.99,,,-99.99,,2013-03-24 09:52:00,
2013-03-24 03:02:00,29.0,27.0,30.38,East,92,0.0,-999.0,91,-99.99,,,-99.99,,2013-03-24 10:02:00,
2013-03-24 03:12:00,29.0,27.0,30.38,East,92,0.0,-999.0,91,-99.99,,,-99.99,,2013-03-24 10:12:00,
2013-03-24 03:22:00,29.0,27.0,30.39,East,92,0.0,-999.0,91,-99.99,,,-99.99,,2013-03-24 10:22:00,
2013-03-24 03:32:00,29.0,27.0,30.39,East,92,0.0,-999.0,91,-99.99,,,-99.99,,2013-03-24 10:32:00,
2013-03-24 03:41:00,29.0,27.0,30.39,East,92,0.0,-999.0,91,-99.99,,,-99.99,,2013-03-24 10:41:00,
2013-03-24 03:52:00,28.0,26.0,30.39,East,92,0.0,-999.0,91,-99.99,,,-99.99,,2013-03-24 10:52:00,
2013-03-24 04:02:00,28.0,26.0,30.39,East,92,0.0,-999.0,91,-99.99,,,-99.99,,2013-03-24 11:02:00,
2013-03-24 04:11:00,28.0,26.0,30.39,East,92,0.0,-999.0,91,-99.99,,,-99.99,,2013-03-24 11:11:00,
2013-03-24 04:21:00,28.0,26.0,30.40,East,92,0.0,-999.0,92,-99.99,,,-99.99,,2013-03-24 11:21:00,
2013-03-24 04:32:00,28.0,26.0,30.40,East,92,0.0,-999.0,92,-99.99,,,-99.99,,2013-03-24 11:32:00,
2013-03-24 04:42:00,28.0,26.0,30.40,East,92,0.0,-999.0,92,-99.99,,,-99.99,,2013-03-24 11:42:00,
2013-03-24 04:51:00,28.0,26.0,30.40,East,92,0.0,-999.0,92,-99.99,,,-99.99,,2013-03-24 11:51:00,
2013-03-24 05:02:00,28.0,26.0,30.40,East,92,0.0,-999.0,92,-99.99,,,-99.99,,2013-03-24 12:02:00,
2013-03-24 05:12:00,28.0,26.0,30.40,East,92,0.0,-999.0,92,-99.99,,,-99.99,,2013-03-24 12:12:00,
2013-03-24 05:22:00,27.0,25.0,30.41,East,92,0.0,-999.0,92,-99.99,,,-99.99,,2013-03-24 12:22:00,
2013-03-24 05:32:00,27.0,25.0,30.41,East,92,0.0,-999.0,92,-99.99,,,-99.99,,2013-03-24 12:32:00,
2013-03-24 05:42:00,27.0,25.0,30.41,East,92,0.0,-999.0,92,-99.99,,,-99.99,,2013-03-24 12:42:00,
2013-03-24 05:52:00,27.0,25.0,30.41,East,92,0.0,-999.0,92,-99.99,,,-99.99,,2013-03-24 12:52:00,
2013-03-24 06:02:00,27.0,25.0,30.41,East,92,0.0,-999.0,92,-99.99,,,-99.99,,2013-03-24 13:02:00,
2013-03-24 06:11:00,27.0,25.0,30.41,East,92,0.0,-999.0,92,-99.99,,,-99.99,,2013-03-24 13:11:00,
2013-03-24 06:22:00,27.0,25.0,30.42,East,92,0.0,-999.0,92,-99.99,,,-99.99,,2013-03-24 13:22:00,
2013-03-24 06:32:00,27.0,25.0,30.42,East,92,0.0,-999.0,93,-99.99,,,-99.99,,2013-03-24 13:32:00,
2013-03-24 06:42:00,27.0,25.0,30.42,East,92,0.0,-999.0,93,-99.99,,,-99.99,,2013-03-24 13:42:00,
2013-03-24 06:52:00,27.0,25.0,30.42,East,92,0.0,-999.0,93,-99.99,,,-99.99,,2013-03-24 13:52:00,
2013-03-24 07:02:00,27.0,25.0,30.42,East,92,0.0,-999.0,93,-99.99,,,-99.99,,2013-03-24 14:02:00,
2013-03-24 07:11:00,27.0,25.0,30.42,East,92,0.0,-999.0,93,-99.99,,,-99.99,,2013-03-24 14:11:00,
2013-03-24 07:22:00,27.0,25.0,30.42,East,92,0.0,-999.0,93,-99.99,,,-99.99,,2013-03-24 14:22:00,
2013-03-24 07:32:00,27.0,25.0,30.43,East,92,0.0,-999.0,93,-99.99,,,-99.99,,2013-03-24 14:32:00,
2013-03-24 07:42:00,27.0,25.0,30.43,East,92,0.0,-999.0,93,-99.99,,,-99.99,,2013-03-24 14:42:00,
2013-03-24 07:51:00,27.0,25.0,30.43,East,92,0.0,-999.0,93,-99.99,,,-99.99,,2013-03-24 14:51:00,
2013-03-24 08:02:00,27.0,25.0,30.43,East,92,0.0,-999.0,93,-99.99,,,-99.99,,2013-03-24 15:02:00,
2013-03-24 08:12:00,27.0,25.0,30.43,East,92,0.0,-999.0,93,-99.99,,,-99.99,,2013-03-24 15:12:00,
2013-03-24 08:22:00,26.0,24.0,30.43,East,92,0.0,-999.0,92,-99.99,,,-99.99,,2013-03-24 15:22:00,
2013-03-24 08:33:00,26.0,24.0,30.43,East,92,0.0,-999.0,92,-99.99,,,-99.99,,2013-03-24 15:33:00,
2013-03-24 08:42:00,26.0,24.0,30.43,East,92,0.0,-999.0,92,-99.99,,,-99.99,,2013-03-24 15:42:00,
2013-03-24 08:52:00,29.0,27.0,30.42,East,92,0.0,-999.0,93,-99.99,,,-99.99,,2013-03-24 15:52:00,
2013-03-24 09:02:00,30.0,27.0,30.42,East,92,0.0,-999.0,90,-99.99,,,-99.99,,2013-03-24 16:02:00,
2013-03-24 09:12:00,30.0,27.0,30.42,East,92,0.0,-999.0,90,-99.99,,,-99.99,,2013-03-24 16:12:00,
2013-03-24 09:22:00,31.0,27.0,30.42,East,92,0.0,-999.0,86,-99.99,,,-99.99,,2013-03-24 16:22:00,
2013-03-24 09:32:00,32.0,27.0,30.42,East,92,0.0,-999.0,82,-99.99,,,-99.99,,2013-03-24 16:32:00,
2013-03-24 09:42:00,32.0,27.0,30.42,East,92,0.0,-999.0,82,-99.99,,,-99.99,,2013-03-24 16:42:00,
2013-03-24 09:52:00,32.0,27.0,30.42,East,92,0.0,-999.0,82,-99.99,,,-99.99,,2013-03-24 16:52:00,
2013-03-24 10:02:00,35.0,27.0,30.42,East,92,0.0,-999.0,71,-99.99,,,-99.99,,2013-03-24 17:02:00,
2013-03-24 10:12:00,35.0,27.0,30.42,East,92,0.0,-999.0,71,-99.99,,,-99.99,,2013-03-24 17:12:00,
2013-03-24 10:22:00,37.0,26.0,30.41,ENE,76,1.0,-999.0,64,-99.99,,,-99.99,,2013-03-24 17:22:00,
2013-03-24 10:32:00,38.0,27.0,30.41,ESE,111,1.0,-999.0,63,-99.99,,,-99.99,,2013-03-24 17:32:00,
2013-03-24 10:42:00,38.0,27.0,30.41,ESE,111,1.0,-999.0,63,-99.99,,,-99.99,,2013-03-24 17:42:00,
2013-03-24 10:52:00,38.0,26.0,30.40,ESE,109,1.0,-999.0,61,-99.99,,,-99.99,,2013-03-24 17:52:00,
2013-03-24 11:02:00,40.0,27.0,30.39,ESE,103,1.0,-999.0,59,-99.99,,,-99.99,,2013-03-24 18:02:00,
2013-03-24 11:12:00,40.0,27.0,30.39,ESE,103,1.0,-999.0,59,-99.99,,,-99.99,,2013-03-24 18:12:00,
2013-03-24 11:22:00,41.0,28.0,30.38,SE,131,1.0,-999.0,60,-99.99,,,-99.99,,2013-03-24 18:22:00,
2013-03-24 11:32:00,41.0,26.0,30.37,WSW,252,1.0,-999.0,55,-99.99,,,-99.99,,2013-03-24 18:32:00,
2013-03-24 11:42:00,41.0,26.0,30.37,WSW,252,1.0,-999.0,55,-99.99,,,-99.99,,2013-03-24 18:42:00,
2013-03-24 11:52:00,42.0,26.0,30.37,SSW,213,2.0,-999.0,53,-99.99,,,-99.99,,2013-03-24 18:52:00,
2013-03-24 12:02:00,43.0,27.0,30.37,South,186,1.0,-999.0,52,-99.99,,,-99.99,,2013-03-24 19:02:00,
2013-03-24 12:11:00,43.0,27.0,30.37,South,186,1.0,-999.0,52,-99.99,,,-99.99,,2013-03-24 19:11:00,
2013-03-24 12:22:00,44.0,27.0,30.36,West,265,1.0,-999.0,50,-99.99,,,-99.99,,2013-03-24 19:22:00,
2013-03-24 12:31:00,45.0,27.0,30.35,South,178,2.0,-999.0,48,-99.99,,,-99.99,,2013-03-24 19:31:00,
2013-03-24 12:42:00,45.0,27.0,30.35,South,178,2.0,-999.0,48,-99.99,,,-99.99,,2013-03-24 19:42:00,
2013-03-24 12:53:00,45.0,25.0,30.34,South,170,2.0,-999.0,45,-99.99,,,-99.99,,2013-03-24 19:53:00,
2013-03-24 13:02:00,46.0,27.0,30.34,WSW,250,1.0,-999.0,47,-99.99,,,-99.99,,2013-03-24 20:02:00,
2013-03-24 13:12:00,46.0,27.0,30.34,WSW,250,1.0,-999.0,47,-99.99,,,-99.99,,2013-03-24 20:12:00,
2013-03-24 13:22:00,47.0,27.0,30.33,WSW,258,1.0,-999.0,45,-99.99,,,-99.99,,2013-03-24 20:22:00,
2013-03-24 13:31:00,48.0,24.0,30.32,South,189,2.0,-999.0,39,-99.99,,,-99.99,,2013-03-24 20:31:00,
2013-03-24 13:42:00,48.0,24.0,30.32,South,189,2.0,-999.0,39,-99.99,,,-99.99,,2013-03-24 20:42:00,
2013-03-24 13:53:00,49.0,23.0,30.32,South,188,3.0,-999.0,36,-99.99,,,-99.99,,2013-03-24 20:53:00,
2013-03-24 14:02:00,50.0,22.0,30.31,SSE,159,1.0,-999.0,33,-99.99,,,-99.99,,2013-03-24 21:02:00,
2013-03-24 14:11:00,50.0,22.0,30.31,SSE,159,1.0,-999.0,33,-99.99,,,-99.99,,2013-03-24 21:11:00,
2013-03-24 14:22:00,50.0,23.0,30.30,NNE,30,2.0,-999.0,34,-99.99,,,-99.99,,2013-03-24 21:22:00,
2013-03-24 14:32:00,50.0,22.0,30.29,SSW,197,2.0,-999.0,33,-99.99,,,-99.99,,2013-03-24 21:32:00,
2013-03-24 14:42:00,50.0,22.0,30.29,SSW,197,2.0,-999.0,33,-99.99,,,-99.99,,2013-03-24 21:42:00,
2013-03-24 14:53:00,51.0,17.0,30.28,SSW,198,2.0,-999.0,26,-99.99,,,-99.99,,2013-03-24 21:53:00,
2013-03-24 15:02:00,51.0,22.0,30.28,South,169,2.0,-999.0,32,-99.99,,,-99.99,,2013-03-24 22:02:00,
2013-03-24 15:12:00,51.0,22.0,30.28,South,169,2.0,-999.0,32,-99.99,,,-99.99,,2013-03-24 22:12:00,
2013-03-24 15:22:00,51.0,17.0,30.27,West,260,2.0,-999.0,26,-99.99,,,-99.99,,2013-03-24 22:22:00,
2013-03-24 15:32:00,52.0,21.0,30.27,SW,226,2.0,-999.0,29,-99.99,,,-99.99,,2013-03-24 22:32:00,
2013-03-24 15:42:00,52.0,21.0,30.27,SW,226,2.0,-999.0,29,-99.99,,,-99.99,,2013-03-24 22:42:00,
2013-03-24 15:52:00,51.0,18.0,30.26,South,171,2.0,-999.0,27,-99.99,,,-99.99,,2013-03-24 22:52:00,
2013-03-24 16:02:00,52.0,16.0,30.25,SSW,194,2.0,-999.0,24,-99.99,,,-99.99,,2013-03-24 23:02:00,
2013-03-24 16:22:00,52.0,17.0,30.25,SSW,194,2.0,-999.0,25,-99.99,,,-99.99,,2013-03-24 23:22:00,
2013-03-24 16:32:00,52.0,17.0,30.24,South,178,2.0,-999.0,25,-99.99,,,-99.99,,2013-03-24 23:32:00,
2013-03-24 16:42:00,52.0,17.0,30.24,South,178,2.0,-999.0,25,-99.99,,,-99.99,,2013-03-24 23:42:00,
2013-03-24 16:52:00,52.0,18.0,30.24,South,180,1.0,-999.0,26,-99.99,,,-99.99,,2013-03-24 23:52:00,
2013-03-24 17:01:00,51.0,21.0,30.23,SSW,194,2.0,-999.0,30,-99.99,,,-99.99,,2013-03-25 00:01:00,
2013-03-24 17:11:00,51.0,21.0,30.23,SSW,194,2.0,-999.0,30,-99.99,,,-99.99,,2013-03-25 00:11:00,
2013-03-24 17:22:00,51.0,20.0,30.23,SSW,203,2.0,-999.0,29,-99.99,,,-99.99,,2013-03-25 00:22:00,
2013-03-24 17:32:00,50.0,21.0,30.22,SSW,208,1.0,-999.0,31,-99.99,,,-99.99,,2013-03-25 00:32:00,
2013-03-24 17:42:00,50.0,21.0,30.22,SSW,208,1.0,-999.0,31,-99.99,,,-99.99,,2013-03-25 00:42:00,
2013-03-24 17:52:00,49.0,25.0,30.22,SSW,208,1.0,-999.0,38,-99.99,,,-99.99,,2013-03-25 00:52:00,
2013-03-24 18:01:00,47.0,24.0,30.22,SSW,208,0.0,-999.0,40,-99.99,,,-99.99,,2013-03-25 01:01:00,
2013-03-24 18:11:00,47.0,24.0,30.22,SSW,208,0.0,-999.0,40,-99.99,,,-99.99,,2013-03-25 01:11:00,
2013-03-24 18:21:00,45.0,25.0,30.22,SSW,208,0.0,-999.0,46,-99.99,,,-99.99,,2013-03-25 01:21:00,
2013-03-24 18:32:00,44.0,26.0,30.22,SSW,208,0.0,-999.0,49,-99.99,,,-99.99,,2013-03-25 01:32:00,
2013-03-24 18:42:00,44.0,26.0,30.22,SSW,208,0.0,-999.0,49,-99.99,,,-99.99,,2013-03-25 01:42:00,
2013-03-24 18:52:00,43.0,26.0,30.21,SSW,208,0.0,-999.0,51,-99.99,,,-99.99,,2013-03-25 01:52:00,
2013-03-24 19:01:00,42.0,26.0,30.21,SSW,208,0.0,-999.0,53,-99.99,,,-99.99,,2013-03-25 02:01:00,
2013-03-24 19:11:00,42.0,26.0,30.21,SSW,208,0.0,-999.0,53,-99.99,,,-99.99,,2013-03-25 02:11:00,
2013-03-24 19:22:00,41.0,27.0,30.21,SSW,208,0.0,-999.0,56,-99.99,,,-99.99,,2013-03-25 02:22:00,
2013-03-24 19:31:00,41.0,28.0,30.21,SSW,208,0.0,-999.0,59,-99.99,,,-99.99,,2013-03-25 02:31:00,
2013-03-24 19:42:00,41.0,28.0,30.21,SSW,208,0.0,-999.0,59,-99.99,,,-99.99,,2013-03-25 02:42:00,
2013-03-24 19:52:00,39.0,27.0,30.21,SSW,208,0.0,-999.0,62,-99.99,,,-99.99,,2013-03-25 02:52:00,
2013-03-24 20:01:00,39.0,28.0,30.21,SSW,208,0.0,-999.0,64,-99.99,,,-99.99,,2013-03-25 03:01:00,
2013-03-24 20:12:00,39.0,28.0,30.21,SSW,208,0.0,-999.0,64,-99.99,,,-99.99,,2013-03-25 03:12:00,
2013-03-24 20:21:00,38.0,28.0,30.21,SSW,208,0.0,-999.0,66,-99.99,,,-99.99,,2013-03-25 03:21:00,
2013-03-24 20:32:00,37.0,28.0,30.21,SSW,208,0.0,-999.0,69,-99.99,,,-99.99,,2013-03-25 03:32:00,
2013-03-24 20:42:00,37.0,28.0,30.22,SSW,208,0.0,-999.0,71,-99.99,,,-99.99,,2013-03-25 03:42:00,
2013-03-24 20:53:00,37.0,28.0,30.22,SSW,208,0.0,-999.0,71,-99.99,,,-99.99,,2013-03-25 03:53:00,
2013-03-24 21:02:00,36.0,28.0,30.22,SSW,208,0.0,-999.0,72,-99.99,,,-99.99,,2013-03-25 04:02:00,
2013-03-24 21:12:00,36.0,28.0,30.22,SSW,208,0.0,-999.0,72,-99.99,,,-99.99,,2013-03-25 04:12:00,
2013-03-24 21:22:00,35.0,27.0,30.22,SSW,208,0.0,-999.0,73,-99.99,,,-99.99,,2013-03-25 04:22:00,
2013-03-24 21:32:00,35.0,28.0,30.22,SSW,208,0.0,-999.0,75,-99.99,,,-99.99,,2013-03-25 04:32:00,
2013-03-24 21:42:00,35.0,28.0,30.22,SSW,208,0.0,-999.0,75,-99.99,,,-99.99,,2013-03-25 04:42:00,
2013-03-24 21:52:00,34.0,27.0,30.23,SSW,208,0.0,-999.0,75,-99.99,,,-99.99,,2013-03-25 04:52:00,
2013-03-24 22:02:00,34.0,27.0,30.23,SSW,208,0.0,-999.0,76,-99.99,,,-99.99,,2013-03-25 05:02:00,
2013-03-24 22:12:00,34.0,27.0,30.23,SSW,208,0.0,-999.0,76,-99.99,,,-99.99,,2013-03-25 05:12:00,
2013-03-24 22:22:00,33.0,27.0,30.23,SSW,208,0.0,-999.0,77,-99.99,,,-99.99,,2013-03-25 05:22:00,
2013-03-24 22:32:00,33.0,27.0,30.23,SSW,208,0.0,-999.0,78,-99.99,,,-99.99,,2013-03-25 05:32:00,
2013-03-24 22:42:00,33.0,27.0,30.23,SSW,208,0.0,-999.0,78,-99.99,,,-99.99,,2013-03-25 05:42:00,
2013-03-24 22:52:00,33.0,27.0,30.24,SSW,208,0.0,-999.0,79,-99.99,,,-99.99,,2013-03-25 05:52:00,
2013-03-24 23:01:00,32.0,27.0,30.24,SSW,208,0.0,-999.0,80,-99.99,,,-99.99,,2013-03-25 06:01:00,
2013-03-24 23:11:00,32.0,27.0,30.24,SSW,208,0.0,-999.0,80,-99.99,,,-99.99,,2013-03-25 06:11:00,
2013-03-24 23:21:00,32.0,27.0,30.24,SSW,208,0.0,-999.0,81,-99.99,,,-99.99,,2013-03-25 06:21:00,
2013-03-24 23:32:00,32.0,27.0,30.24,SSW,208,0.0,-999.0,81,-99.99,,,-99.99,,2013-03-25 06:32:00,
2013-03-24 23:42:00,32.0,27.0,30.24,SSW,208,0.0,-999.0,81,-99.99,,,-99.99,,2013-03-25 06:42:00,
2013-03-24 23:52:00,31.0,26.0,30.24,SSW,208,0.0,-999.0,82,-99.99,,,-99.99,,2013-03-25 06:52:00,